Regional Weather Roundup
Issued by NWS

Home | Current Version | Previous Version | Text Only | Print | Product List | Glossary On
Versions: 1 2 3 4 5 6 7 8 9 10 11 12 13 14 15 16 17 18 19 20 21 22 23 24 25 26 27 28 29 30 31 32 33 34 35 36 37 38 39 40 41 42 43 44 45 46 47 48 49 50
000
ASUS43 KFSD 010510
RWRSD

WEATHER ROUNDUP FOR SOUTH DAKOTA
NATIONAL WEATHER SERVICE SIOUX FALLS SD
1100 PM CST SAT FEB 28 2015

NOTE: "FAIR" INDICATES FEW OR NO CLOUDS BELOW 12,000 FEET WITH NO
SIGNIFICANT WEATHER AND/OR OBSTRUCTIONS TO VISIBILITY.


SDZ001>005-009-010-012>017-010600-
NORTHWEST AND NORTH CENTRAL SOUTH DAKOTA

CITY           SKY/WX    TMP DP  RH WIND       PRES   REMARKS
BUFFALO          N/A     12   6  77 W10       30.09R WCI  -1
FAITH            N/A     12   4  70 W8        30.19S WCI   0
MOBRIDGE       PTCLDY     5   2  87 CALM      30.19R
$$

SDZ012>016-024>037-041>051-057-063-072>074-010600-
SOUTHWEST AND SOUTH CENTRAL SOUTH DAKOTA

CITY           SKY/WX    TMP DP  RH WIND       PRES   REMARKS
RAPID CTY ARPT CLOUDY    12   7  80 NW3       30.18R
PIERRE         PTCLDY    13   5  70 NW6       30.24R WCI   4
CUSTER         CLOUDY    10   5  80 SW3       30.01S
ELLSWORTH AFB  CLOUDY    13   7  76 W1        30.17R
PHILIP         MOCLDY     9   1  70 W6        30.24R WCI  -1
PINE RIDGE     CLOUDY    20   8  60 NE6       30.17R WCI  12
WINNER         FAIR      14  -2  49 NW7       30.24R WCI   4
$$

SDZ004>011-016>023-039-040-010600-
NORTHEAST SOUTH DAKOTA

CITY           SKY/WX    TMP DP  RH WIND       PRES   REMARKS
ABERDEEN       PTCLDY     9   3  77 NW6       30.25R WCI  -1
WATERTOWN      MOCLDY    16  11  80 N12       30.18R WCI   3
SISSETON         N/A     14   8  77 N14       30.22R WCI  -1
$$

SDZ017-020-022-023-036>040-048>070-010600-
SOUTHEAST SOUTH DAKOTA

CITY           SKY/WX    TMP DP  RH WIND       PRES   REMARKS
SIOUX FALLS    CLEAR     18  12  77 SW14      30.23R WCI   4
HURON          PTCLDY    11   7  84 NW12      30.25R WCI  -3
CHAMBERLAIN    PTCLDY    15  10  82 CALM      30.25R
MITCHELL       CLEAR     17  13  84 NW7       30.26R WCI   8
YANKTON        CLEAR     21  12  68 SW10      30.27R WCI  10
$$

ABBREVIATIONS USED IN REMARKS
   TC - TEMPERATURE IN CELSIUS
  WCI - WIND CHILL INDEX
   HX - HEAT INDEX
  VSB - VISIBILITY




USA.gov is the U.S. government's official web portal to all federal, state and local government web resources and services.